Lid_Strength_Index
-2 -1 -1 -1 -1 -1 -1 -1 -1 -1 -1 -1 -1 -1 -1 -1 -0 -0 -0 -0 -1 -1 -1 -1 -1 -1 -1 -1 -1 -1 -1 -2 -2
-1 -1 -1 -1 -1 -1 -1 -1 -1 -1 -1 -1 -1 -1 -1 -0 -0 -0 -0 -0 -1 -1 -1 -1 -1 -1 -1 -1 -1 -1 -1 -2 -2
-2 -1 -1 -1 -1 -1 -1 -1 -1 -1 -1 -1 -1 -1 -2 -0 0 -0 -0 -1 -1 -1 -1 -1 -1 -1 -1 -1 -1 -1 -1 -2 -2
-2 -1 -2 -2 -1 -1 -1 -1 -1 -1 -1 -1 -1 -1 -1 0 0 -0 -0 -1 -1 -1 -1 -1 -1 -1 -1 -1 -1 -1 -1 -2 -2
-2 -1 -2 -2 -2 -2 -1 -1 -1 -1 -1 -0 0 -0 -0 1 0 0 -0 -2 -1 -1 -1 -1 -1 -1 -1 -1 -1 -1 -1 -1 -1
0 -1 -2 -2 -2 -2 -2 -1 -1 -0 1 2 2 0 3 2 2 1 -2 -1 -1 -1 -1 -1 -1 -1 -1 -1 -1 -1 -1 -1 -1
0 -1 -2 -2 -2 -2 -1 -0 1 1 6 8 4 3 4 3 3 1 -1 -1 -1 -1 -1 -1 -1 -1 -1 -1 -1 -1 -1 -1 -1
1 2 2 4 1 4 4 5 6 6 6 7 7 3 4 4 3 -0 -1 -1 -1 -1 -1 -1 -1 -1 -1 -1 -1 -1 -1 -1 -1
3 3 4 6 5 6 7 8 8 8 8 9 9 4 4 4 3 0 -1 -1 -1 -1 -1 -0 -1 -1 -1 -1 -1 -1 -1 -1 -1
4 5 6 7 7 7 8 9 8 10 10 10 10 8 5 5 5 4 -0 -1 -1 -1 -1 -1 -1 0 -0 -1 -0 1 0 -0 0
5 6 6 7 8 8 9 9 9 10 10 10 9 10 6 6 6 6 5 1 1 1 2 1 1 0 -0 0 0 0 1 1 1
5 6 7 7 8 8 9 10 10 10 9 10 10 9 10 7 7 6 6 4 2 3 3 3 2 2 2 2 2 1 1 0 0
7 6 7 7 8 9 9 10 10 10 10 11 10 10 10 10 8 7 6 6 5 3 3 4 4 4 4 3 2 2 1 1 1
7 7 6 7 8 9 9 10 10 10 10 10 10 10 10 10 9 8 7 7 6 6 3 3 4 4 4 4 4 3 2 2 1
7 8 7 7 8 9 9 10 10 10 10 8 9 11 11 10 10 10 8 8 7 7 8 8 7 3 3 4 4 4 3 3 3
8 9 9 9 7 8 9 9 10 10 10 11 11 11 11 11 11 10 10 9 8 8 8 8 9 8 3 4 4 4 3 4 4
8 8 8 8 9 9 9 9 10 10 10 11 13 13 11 11 11 11 10 10 9 8 8 9 9 9 9 8 4 4 4 4 4
7 8 8 8 8 8 8 9 9 10 10 11 12 14 13 13 12 12 11 11 10 9 9 9 9 9 10 7 5 3 4 4 3
6 6 6 7 8 9 8 8 9 10 10 11 10 12 12 13 13 12 12 12 11 11 10 10 10 10 10 8 6 4 3 4 4
6 6 7 7 6 7 8 9 9 9 10 11 12 13 13 14 14 14 13 12 11 11 11 11 11 11 10 10 8 3 3 3 4